STARLINK-31371, 58940

Orbit data source: Space-Track

STARLINK-31371, 58940 is a payload satellite owned by SpaceX/Seattle (US) in LEO that was launched on Sat, 10 Feb 2024 UTC via an FALCON 9 launch vehicle from the Air Force Western Test Range (AFWTR). Payload-class satellites include a variety of spacecraft equipped with specific instruments for various scientific and technological missions. These include communications satellites like Starlink; space stations such as the ISS; scientific satellites like the Hubble; Earth observation satellites from companies like Planet Labs, Umbra, and HawkEye 360; GPS; miniature CubeSats for education and research; and military/defense satellites.

Loading next visibility...
Identifier
58940, 2024-027K
Orbit
LEO
Country
Flag of USUS
Related business
Manufacturer
SpaceX/Seattle
Mission
Operational Commercial Communications
Bus & Motor
STARLINK V2M, Unknown motor
Mass
730 kg wet, ~700 kg dry
Launch date (UTC)
2024-02-10 (2 years ago)
Launch vehicle
FALCON 9
Launch site
Air Force Western Test Range (AFWTR)
Object type
Payload
Rocket body
Debris
Shape & HBR
Box + 2 Pan, 17.7 m
Radar Cross Section
33.884 m², Large (>1 m²)

Expand to show TLE details & history
Last TLE update: 2 days ago

TLE from 2 days ago
0 STARLINK-31371
1 58940U 24027K   26171.35209840  .00000086  00000-0  15015-4 0  9999
2 58940  53.1595 192.9625 0001105  88.5132 271.5995 15.30202962133043
Epoch: 2026-06-20T08:27Z
TLE epoch observation values (Epoch: 2026-06-20T08:27:01.301Z)
Latitude
-0.00006°
Longitude
157.63908°
Altitude
476.085 km
Speed
7.629 km/s
True Right ascension
12h 51m 50s
True Declination
0° 00' 00"
Sunlit
Object was in daylight at epoch
Visualization orbit readout
Latitude
Unknown
Longitude
Unknown
Altitude
Unknown
Speed
Unknown
Apparent Right ascension
Unknown
Apparent Declination
Unknown
Sunlit
N/A
Visualization observer readout
Local Sidereal Time
00:27:51
Azimuth
Unknown
Elevation
Unknown
Doppler factor
Unknown
Orbital elements
Apogee altitude
476.22 km
Perigee altitude
474.705 km
Semi-major axis
6,853.6 km
Eccentricity
0.00011
Inclination
53.1595°
RAAN
192.9625°
Arg. of periapsis
88.5132°
True anomaly
271.58684°
Mean anomaly
271.5995°
Eccentric anomaly
271.59317°
Mean motion
3.8253 °/min
Orbital period
94.11 mins
BSTAR
0.000015015
Loading maneuver chart data...
Computing Atmospheric mass density...
Loading historical data...
Loading historical data...
Loading historical data...
Loading historical data...
Loading historical data...
Loading historical data...
Loading historical data...

Documentation

Showing up to 5 results
|